Year,Month,Day,Hour,Minute,Value (Times are PST for temperature in C)
2012,09,25,00,00,13.00
2012,09,25,00,01,13.10
2012,09,25,00,02,13.10
2012,09,25,00,03,13.10
2012,09,25,00,04,13.10
2012,09,25,00,05,13.10
2012,09,25,00,06,13.10
2012,09,25,00,07,13.10
2012,09,25,00,08,13.10
2012,09,25,00,09,13.20
2012,09,25,00,10,13.20
2012,09,25,00,11,13.20
2012,09,25,00,12,13.20
2012,09,25,00,13,13.20
2012,09,25,00,14,13.20
2012,09,25,00,15,13.20
2012,09,25,00,16,13.20
2012,09,25,00,17,13.20
2012,09,25,00,18,13.20
2012,09,25,00,19,13.20
2012,09,25,00,20,13.20
2012,09,25,00,21,13.20
2012,09,25,00,22,13.20
2012,09,25,00,23,13.20
2012,09,25,00,24,13.20
2012,09,25,00,25,13.20
2012,09,25,00,26,13.10
2012,09,25,00,27,13.10
2012,09,25,00,28,13.10
2012,09,25,00,29,13.10
2012,09,25,00,30,13.10
2012,09,25,00,31,13.10
2012,09,25,00,32,13.00
2012,09,25,00,33,13.00
2012,09,25,00,34,13.00
2012,09,25,00,35,13.00
2012,09,25,00,36,13.00
2012,09,25,00,37,12.90
2012,09,25,00,38,12.90
2012,09,25,00,39,12.90
2012,09,25,00,40,12.90
2012,09,25,00,41,12.80
2012,09,25,00,42,12.80
2012,09,25,00,43,12.80
2012,09,25,00,44,12.80
2012,09,25,00,45,12.70
2012,09,25,00,46,12.70
2012,09,25,00,47,12.70
2012,09,25,00,48,12.70
2012,09,25,00,49,12.70
2012,09,25,00,50,12.70
2012,09,25,00,51,12.70
2012,09,25,00,52,12.70
2012,09,25,00,53,12.70
2012,09,25,00,54,12.70
2012,09,25,00,55,12.70
2012,09,25,00,56,12.70
2012,09,25,00,57,12.70
2012,09,25,00,58,12.70
2012,09,25,00,59,12.70
2012,09,25,01,00,12.60
2012,09,25,01,01,12.60
2012,09,25,01,02,12.60
2012,09,25,01,03,12.60
2012,09,25,01,04,12.60
2012,09,25,01,05,12.60
2012,09,25,01,06,12.60
2012,09,25,01,07,12.60
2012,09,25,01,08,12.60
2012,09,25,01,09,12.60
2012,09,25,01,10,12.50
2012,09,25,01,11,12.50
2012,09,25,01,12,12.40
2012,09,25,01,13,12.40
2012,09,25,01,14,12.40
2012,09,25,01,15,12.40
2012,09,25,01,16,12.30
2012,09,25,01,17,12.30
2012,09,25,01,18,12.30
2012,09,25,01,19,12.30
2012,09,25,01,20,12.20
2012,09,25,01,21,12.20
2012,09,25,01,22,12.20
2012,09,25,01,23,12.20
2012,09,25,01,24,12.20
2012,09,25,01,25,12.20
2012,09,25,01,26,12.10
2012,09,25,01,27,12.10
2012,09,25,01,28,12.10
2012,09,25,01,29,12.10
2012,09,25,01,30,12.10
2012,09,25,01,31,12.10
2012,09,25,01,32,12.10
2012,09,25,01,33,12.10
2012,09,25,01,34,12.10
2012,09,25,01,35,12.10
2012,09,25,01,36,12.10
2012,09,25,01,37,12.10
2012,09,25,01,38,12.10
2012,09,25,01,39,12.10
2012,09,25,01,40,12.10
2012,09,25,01,41,12.10
2012,09,25,01,42,12.10
2012,09,25,01,43,12.10
2012,09,25,01,44,12.10
2012,09,25,01,45,12.10
2012,09,25,01,46,12.10
2012,09,25,01,47,12.10
2012,09,25,01,48,12.00
2012,09,25,01,49,12.00
2012,09,25,01,50,12.00
2012,09,25,01,51,12.00
2012,09,25,01,52,12.00
2012,09,25,01,53,12.00
2012,09,25,01,54,12.00
2012,09,25,01,55,12.00
2012,09,25,01,56,12.00
2012,09,25,01,57,11.90
2012,09,25,01,58,11.90
2012,09,25,01,59,11.90
2012,09,25,02,00,11.90
2012,09,25,02,01,11.90
2012,09,25,02,02,11.90
2012,09,25,02,03,11.90
2012,09,25,02,04,11.90
2012,09,25,02,05,11.90
2012,09,25,02,06,11.90
2012,09,25,02,07,11.80
2012,09,25,02,08,11.80
2012,09,25,02,09,11.80
2012,09,25,02,10,11.80
2012,09,25,02,11,11.80
2012,09,25,02,12,11.80
2012,09,25,02,13,11.70
2012,09,25,02,14,11.70
2012,09,25,02,15,11.70
2012,09,25,02,16,11.70
2012,09,25,02,17,11.70
2012,09,25,02,18,11.70
2012,09,25,02,19,11.70
2012,09,25,02,20,11.60
2012,09,25,02,21,11.60
2012,09,25,02,22,11.60
2012,09,25,02,23,11.60
2012,09,25,02,24,11.60
2012,09,25,02,25,11.50
2012,09,25,02,26,11.50
2012,09,25,02,27,11.50
2012,09,25,02,28,11.40
2012,09,25,02,29,11.40
2012,09,25,02,30,11.40
2012,09,25,02,31,11.40
2012,09,25,02,32,11.40
2012,09,25,02,33,11.30
2012,09,25,02,34,11.30
2012,09,25,02,35,11.30
2012,09,25,02,36,11.30
2012,09,25,02,37,11.30
2012,09,25,02,38,11.20
2012,09,25,02,39,11.20
2012,09,25,02,40,11.20
2012,09,25,02,41,11.30
2012,09,25,02,42,11.20
2012,09,25,02,43,11.20
2012,09,25,02,44,11.20
2012,09,25,02,45,11.20
2012,09,25,02,46,11.20
2012,09,25,02,47,11.20
2012,09,25,02,48,11.20
2012,09,25,02,49,11.20
2012,09,25,02,50,11.20
2012,09,25,02,51,11.20
2012,09,25,02,52,11.20
2012,09,25,02,53,11.10
2012,09,25,02,54,11.10
2012,09,25,02,55,11.10
2012,09,25,02,56,11.10
2012,09,25,02,57,11.00
2012,09,25,02,58,11.00
2012,09,25,02,59,11.00
2012,09,25,03,00,10.90
2012,09,25,03,01,10.90
2012,09,25,03,02,10.90
2012,09,25,03,06,10.80
2012,09,25,03,07,10.80
2012,09,25,03,08,10.80
2012,09,25,03,09,10.80
2012,09,25,03,10,10.80
2012,09,25,03,11,10.80
2012,09,25,03,12,10.70
2012,09,25,03,13,10.70
2012,09,25,03,14,10.70
2012,09,25,03,15,10.70
2012,09,25,03,16,10.70
2012,09,25,03,17,10.70
2012,09,25,03,18,10.70
2012,09,25,03,19,10.70
2012,09,25,03,20,10.70
2012,09,25,03,21,10.70
2012,09,25,03,22,10.70
2012,09,25,03,23,10.70
2012,09,25,03,24,10.70
2012,09,25,03,25,10.70
2012,09,25,03,26,10.70
2012,09,25,03,27,10.70
2012,09,25,03,28,10.70
2012,09,25,03,29,10.70
2012,09,25,03,30,10.70
2012,09,25,03,31,10.70
2012,09,25,03,32,10.70
2012,09,25,03,33,10.70
2012,09,25,03,34,10.70
2012,09,25,03,35,10.70
2012,09,25,03,36,10.70
2012,09,25,03,37,10.70
2012,09,25,03,38,10.70
2012,09,25,03,39,10.70
2012,09,25,03,40,10.70
2012,09,25,03,41,10.70
2012,09,25,03,42,10.70
2012,09,25,03,43,10.70
2012,09,25,03,44,10.80
2012,09,25,03,45,10.80
2012,09,25,03,46,10.80
2012,09,25,03,47,10.80
2012,09,25,03,48,10.80
2012,09,25,03,49,10.80
2012,09,25,03,50,10.80
2012,09,25,03,51,10.80
2012,09,25,03,52,10.80
2012,09,25,03,53,10.90
2012,09,25,03,54,10.90
2012,09,25,03,55,10.90
2012,09,25,03,56,10.90
2012,09,25,03,57,10.90
2012,09,25,03,58,10.90
2012,09,25,03,59,11.00
2012,09,25,04,00,11.00
2012,09,25,04,01,11.00
2012,09,25,04,02,11.00
2012,09,25,04,03,11.00
2012,09,25,04,04,11.00
2012,09,25,04,05,11.00
2012,09,25,04,06,11.00
2012,09,25,04,07,11.00
2012,09,25,04,08,11.00
2012,09,25,04,09,11.00
2012,09,25,04,10,11.00
2012,09,25,04,11,11.00
2012,09,25,04,12,11.00
2012,09,25,04,13,11.00
2012,09,25,04,14,11.00
2012,09,25,04,15,11.00
2012,09,25,04,16,11.00
2012,09,25,04,17,11.00
2012,09,25,04,18,11.00
2012,09,25,04,19,11.00
2012,09,25,04,20,10.90
2012,09,25,04,21,10.90
2012,09,25,04,22,10.90
2012,09,25,04,23,10.90
2012,09,25,04,24,10.90
2012,09,25,04,25,10.90
2012,09,25,04,26,10.80
2012,09,25,04,27,10.80
2012,09,25,04,28,10.80
2012,09,25,04,29,10.80
2012,09,25,04,30,10.80
2012,09,25,04,31,10.80
2012,09,25,04,32,10.80
2012,09,25,04,33,10.80
2012,09,25,04,34,10.70
2012,09,25,04,35,10.70
2012,09,25,04,36,10.70
2012,09,25,04,37,10.70
2012,09,25,04,38,10.70
2012,09,25,04,39,10.70
2012,09,25,04,40,10.70
2012,09,25,04,41,10.70
2012,09,25,04,42,10.70
2012,09,25,04,43,10.70
2012,09,25,04,44,10.70
2012,09,25,04,45,10.70
2012,09,25,04,46,10.60
2012,09,25,04,47,10.60
2012,09,25,04,48,10.60
2012,09,25,04,49,10.60
2012,09,25,04,50,10.60
2012,09,25,04,51,10.60
2012,09,25,04,52,10.60
2012,09,25,04,53,10.60
2012,09,25,04,54,10.60
2012,09,25,04,55,10.60
2012,09,25,04,56,10.60
2012,09,25,04,57,10.50
2012,09,25,04,58,10.50
2012,09,25,04,59,10.50
2012,09,25,05,00,10.50
2012,09,25,05,01,10.50
2012,09,25,05,02,10.50
2012,09,25,05,03,10.50
2012,09,25,05,04,10.50
2012,09,25,05,05,10.50
2012,09,25,05,06,10.50
2012,09,25,05,07,10.50
2012,09,25,05,08,10.50
2012,09,25,05,09,10.60
2012,09,25,05,10,10.60
2012,09,25,05,11,10.60
2012,09,25,05,12,10.60
2012,09,25,05,13,10.50
2012,09,25,05,14,10.50
2012,09,25,05,15,10.50
2012,09,25,05,16,10.50
2012,09,25,05,17,10.50
2012,09,25,05,18,10.50
2012,09,25,05,19,10.50
2012,09,25,05,20,10.50
2012,09,25,05,21,10.40
2012,09,25,05,22,10.40
2012,09,25,05,23,10.40
2012,09,25,05,24,10.40
2012,09,25,05,25,10.40
2012,09,25,05,26,10.40
2012,09,25,05,27,10.40
2012,09,25,05,28,10.30
2012,09,25,05,29,10.30
2012,09,25,05,30,10.30
2012,09,25,05,31,10.30
2012,09,25,05,32,10.30
2012,09,25,05,33,10.30
2012,09,25,05,34,10.30
2012,09,25,05,35,10.30
2012,09,25,05,36,10.30
2012,09,25,05,37,10.30
2012,09,25,05,38,10.30
2012,09,25,05,39,10.30
2012,09,25,05,40,10.30
2012,09,25,05,41,10.30
2012,09,25,05,42,10.30
2012,09,25,05,43,10.30
2012,09,25,05,44,10.30
2012,09,25,05,45,10.40
2012,09,25,05,46,10.40
2012,09,25,05,47,10.40
2012,09,25,05,48,10.40
2012,09,25,05,49,10.40
2012,09,25,05,50,10.40
2012,09,25,05,51,10.30
2012,09,25,05,52,10.30
2012,09,25,05,53,10.30
2012,09,25,05,54,10.30
2012,09,25,05,55,10.30
2012,09,25,05,56,10.30
2012,09,25,05,57,10.30
2012,09,25,05,58,10.30
2012,09,25,05,59,10.30
2012,09,25,06,00,10.30
2012,09,25,06,01,10.30
2012,09,25,06,02,10.30
2012,09,25,06,03,10.30
2012,09,25,06,04,10.30
2012,09,25,06,05,10.30
2012,09,25,06,06,10.30
2012,09,25,06,07,10.30
2012,09,25,06,08,10.30
2012,09,25,06,09,10.30
2012,09,25,06,10,10.30
2012,09,25,06,11,10.30
2012,09,25,06,12,10.30
2012,09,25,06,13,10.30
2012,09,25,06,14,10.30
2012,09,25,06,15,10.30
2012,09,25,06,16,10.30
2012,09,25,06,17,10.30
2012,09,25,06,18,10.30
2012,09,25,06,19,10.30
2012,09,25,06,20,10.30
2012,09,25,06,21,10.30
2012,09,25,06,22,10.20
2012,09,25,06,23,10.20
2012,09,25,06,24,10.20
2012,09,25,06,25,10.20
2012,09,25,06,26,10.20
2012,09,25,06,27,10.20
2012,09,25,06,28,10.20
2012,09,25,06,29,10.20
2012,09,25,06,30,10.20
2012,09,25,06,31,10.20
2012,09,25,06,32,10.20
2012,09,25,06,33,10.20
2012,09,25,06,34,10.20
2012,09,25,06,35,10.20
2012,09,25,06,36,10.20
2012,09,25,06,37,10.10
2012,09,25,06,38,10.10
2012,09,25,06,39,10.10
2012,09,25,06,40,10.10
2012,09,25,06,41,10.10
2012,09,25,06,42,10.10
2012,09,25,06,43,10.10
2012,09,25,06,44,10.10
2012,09,25,06,45,10.10
2012,09,25,06,46,10.10
2012,09,25,06,47,10.10
2012,09,25,06,48,10.10
2012,09,25,06,49,10.10
2012,09,25,06,50,10.10
2012,09,25,06,51,10.10
2012,09,25,06,52,10.10
2012,09,25,06,53,10.10
2012,09,25,06,54,10.10
2012,09,25,06,55,10.20
2012,09,25,06,56,10.20
2012,09,25,06,57,10.20
2012,09,25,06,58,10.20
2012,09,25,06,59,10.20
2012,09,25,07,00,10.20
2012,09,25,07,01,10.20
2012,09,25,07,02,10.20
2012,09,25,07,03,10.20
2012,09,25,07,04,10.30
2012,09,25,07,05,10.30
2012,09,25,07,06,10.30
2012,09,25,07,07,10.30
2012,09,25,07,08,10.30
2012,09,25,07,09,10.30
2012,09,25,07,10,10.30
2012,09,25,07,11,10.30
2012,09,25,07,12,10.30
2012,09,25,07,13,10.40
2012,09,25,07,14,10.40
2012,09,25,07,15,10.40
2012,09,25,07,16,10.40
2012,09,25,07,17,10.40
2012,09,25,07,18,10.40
2012,09,25,07,19,10.40
2012,09,25,07,20,10.40
2012,09,25,07,21,10.40
2012,09,25,07,22,10.40
2012,09,25,07,23,10.40
2012,09,25,07,24,10.40
2012,09,25,07,25,10.40
2012,09,25,07,26,10.40
2012,09,25,07,27,10.40
2012,09,25,07,28,10.40
2012,09,25,07,29,10.40
2012,09,25,07,30,10.40
2012,09,25,07,31,10.40
2012,09,25,07,32,10.40
2012,09,25,07,33,10.40
2012,09,25,07,34,10.30
2012,09,25,07,35,10.30
2012,09,25,07,36,10.30
2012,09,25,07,37,10.30
2012,09,25,07,38,10.30
2012,09,25,07,39,10.30
2012,09,25,07,40,10.30
2012,09,25,07,41,10.30
2012,09,25,07,42,10.40
2012,09,25,07,43,10.40
2012,09,25,07,44,10.30
2012,09,25,07,45,10.30
2012,09,25,07,46,10.30
2012,09,25,07,47,10.30
2012,09,25,07,48,10.30
2012,09,25,07,49,10.30
2012,09,25,07,50,10.30
2012,09,25,07,51,10.30
2012,09,25,07,52,10.30
2012,09,25,07,53,10.30
2012,09,25,07,54,10.30
2012,09,25,07,55,10.30
2012,09,25,07,56,10.30
2012,09,25,07,57,10.30
2012,09,25,07,58,10.30
2012,09,25,07,59,10.40
2012,09,25,08,00,10.40
2012,09,25,08,01,10.40
2012,09,25,08,02,10.40
2012,09,25,08,03,10.40
2012,09,25,08,04,10.40
2012,09,25,08,05,10.40
2012,09,25,08,06,10.40
2012,09,25,08,07,10.40
2012,09,25,08,08,10.40
2012,09,25,08,09,10.40
2012,09,25,08,10,10.40
2012,09,25,08,11,10.40
2012,09,25,08,12,10.50
2012,09,25,08,13,10.50
2012,09,25,08,14,10.50
2012,09,25,08,15,10.50
2012,09,25,08,16,10.60
2012,09,25,08,17,10.60
2012,09,25,08,18,10.60
2012,09,25,08,19,10.60
2012,09,25,08,20,10.60
2012,09,25,08,21,10.60
2012,09,25,08,22,10.60
2012,09,25,08,23,10.70
2012,09,25,08,24,10.70
2012,09,25,08,25,10.70
2012,09,25,08,26,10.70
2012,09,25,08,27,10.70
2012,09,25,08,28,10.70
2012,09,25,08,29,10.80
2012,09,25,08,30,10.90
2012,09,25,08,31,11.00
2012,09,25,08,32,11.10
2012,09,25,08,33,11.10
2012,09,25,08,34,11.20
2012,09,25,08,35,11.30
2012,09,25,08,36,11.40
2012,09,25,08,37,11.50
2012,09,25,08,38,11.60
2012,09,25,08,39,11.60
2012,09,25,08,40,11.70
2012,09,25,08,41,11.80
2012,09,25,08,42,11.90
2012,09,25,08,43,12.00
2012,09,25,08,44,12.10
2012,09,25,08,45,12.20
2012,09,25,08,46,12.20
2012,09,25,08,47,12.30
2012,09,25,08,48,12.40
2012,09,25,08,49,12.50
2012,09,25,08,50,12.60
2012,09,25,08,51,12.60
2012,09,25,08,52,12.70
2012,09,25,08,53,12.70
2012,09,25,08,54,12.80
2012,09,25,08,55,12.80
2012,09,25,08,56,12.70
2012,09,25,08,57,12.70
2012,09,25,08,58,12.70
2012,09,25,08,59,12.70
2012,09,25,09,00,12.70
2012,09,25,09,01,12.70
2012,09,25,09,02,12.70
2012,09,25,09,03,12.60
2012,09,25,09,04,12.70
2012,09,25,09,05,12.70
2012,09,25,09,06,12.70
2012,09,25,09,07,12.70
2012,09,25,09,08,12.70
2012,09,25,09,09,12.70
2012,09,25,09,10,12.60
2012,09,25,09,11,12.60
2012,09,25,09,12,12.60
2012,09,25,09,13,12.60
2012,09,25,09,14,12.60
2012,09,25,09,15,12.60
2012,09,25,09,16,12.60
2012,09,25,09,17,12.60
2012,09,25,09,18,12.60
2012,09,25,09,19,12.60
2012,09,25,09,20,12.60
2012,09,25,09,21,12.60
2012,09,25,09,22,12.60
2012,09,25,09,23,12.60
2012,09,25,09,24,12.60
2012,09,25,09,25,12.50
2012,09,25,09,26,12.60
2012,09,25,09,27,12.60
2012,09,25,09,28,12.60
2012,09,25,09,29,12.60
2012,09,25,09,30,12.70
2012,09,25,09,31,12.70
2012,09,25,09,32,12.80
2012,09,25,09,33,12.80
2012,09,25,09,34,12.80
2012,09,25,09,35,12.80
2012,09,25,09,36,12.80
2012,09,25,09,37,12.80
2012,09,25,09,38,12.80
2012,09,25,09,39,12.90
2012,09,25,09,40,12.90
2012,09,25,09,41,12.90
2012,09,25,09,42,12.90
2012,09,25,09,43,13.00
2012,09,25,09,44,13.10
2012,09,25,09,45,13.10
2012,09,25,09,46,13.20
2012,09,25,09,47,13.20
2012,09,25,09,48,13.20
2012,09,25,09,49,13.20
2012,09,25,09,50,13.30
2012,09,25,09,51,13.30
2012,09,25,09,52,13.30
2012,09,25,09,53,13.40
2012,09,25,09,54,13.50
2012,09,25,09,55,13.50
2012,09,25,09,56,13.60
2012,09,25,09,57,13.60
2012,09,25,09,58,13.70
2012,09,25,09,59,13.70
2012,09,25,10,00,13.80
2012,09,25,10,01,13.80
2012,09,25,10,02,13.80
2012,09,25,10,03,13.90
2012,09,25,10,04,13.90
2012,09,25,10,05,14.00
2012,09,25,10,06,14.10
2012,09,25,10,07,14.10
2012,09,25,10,08,14.20
2012,09,25,10,09,14.30
2012,09,25,10,10,14.40
2012,09,25,10,11,14.50
2012,09,25,10,12,14.60
2012,09,25,10,13,14.70
2012,09,25,10,14,14.70
2012,09,25,10,15,14.80
2012,09,25,10,16,14.80
2012,09,25,10,17,14.90
2012,09,25,10,18,14.90
2012,09,25,10,19,14.90
2012,09,25,10,20,14.90
2012,09,25,10,21,14.90
2012,09,25,10,22,14.90
2012,09,25,10,23,15.00
2012,09,25,10,24,15.10
2012,09,25,10,25,15.10
2012,09,25,10,26,15.20
2012,09,25,10,27,15.30
2012,09,25,10,28,15.30
2012,09,25,10,29,15.40
2012,09,25,10,30,15.40
2012,09,25,10,31,15.50
2012,09,25,10,32,15.50
2012,09,25,10,33,15.60
2012,09,25,10,34,15.60
2012,09,25,10,35,15.60
2012,09,25,10,36,15.70
2012,09,25,10,37,15.70
2012,09,25,10,38,15.70
2012,09,25,10,39,15.70
2012,09,25,10,40,15.70
2012,09,25,10,41,15.70
2012,09,25,10,42,15.70
2012,09,25,10,43,15.70
2012,09,25,10,44,15.70
2012,09,25,10,45,15.80
2012,09,25,10,46,15.80
2012,09,25,10,47,15.90
2012,09,25,10,48,16.00
2012,09,25,10,49,16.00
2012,09,25,10,50,16.10
2012,09,25,10,51,16.10
2012,09,25,10,52,16.10
2012,09,25,10,53,16.10
2012,09,25,10,54,16.20
2012,09,25,10,55,16.20
2012,09,25,10,56,16.30
2012,09,25,10,57,16.30
2012,09,25,10,58,16.30
2012,09,25,10,59,16.30
2012,09,25,11,00,16.30
2012,09,25,11,01,16.30
2012,09,25,11,02,16.20
2012,09,25,11,03,16.20
2012,09,25,11,04,16.10
2012,09,25,11,05,16.10
2012,09,25,11,06,16.10
2012,09,25,11,07,16.20
2012,09,25,11,08,16.20
2012,09,25,11,09,16.30
2012,09,25,11,10,16.30
2012,09,25,11,11,16.30
2012,09,25,11,12,16.30
2012,09,25,11,13,16.40
2012,09,25,11,14,16.50
2012,09,25,11,15,16.50
2012,09,25,11,16,16.60
2012,09,25,11,17,16.60
2012,09,25,11,18,16.60
2012,09,25,11,19,16.70
2012,09,25,11,20,16.70
2012,09,25,11,21,16.80
2012,09,25,11,22,16.80
2012,09,25,11,23,16.80
2012,09,25,11,24,16.80
2012,09,25,11,25,16.80
2012,09,25,11,26,16.80
2012,09,25,11,27,16.80
2012,09,25,11,28,16.80
2012,09,25,11,29,16.80
2012,09,25,11,30,16.80
2012,09,25,11,31,16.80
2012,09,25,11,32,16.90
2012,09,25,11,33,16.80
2012,09,25,11,34,16.80
2012,09,25,11,35,16.80
2012,09,25,11,36,16.90
2012,09,25,11,37,16.90
2012,09,25,11,38,17.00
2012,09,25,11,39,17.00
2012,09,25,11,40,17.10
2012,09,25,11,41,17.20
2012,09,25,11,42,17.30
2012,09,25,11,43,17.40
2012,09,25,11,44,17.40
2012,09,25,11,45,17.30
2012,09,25,11,46,17.40
2012,09,25,11,47,17.40
2012,09,25,11,48,17.40
2012,09,25,11,49,17.30
2012,09,25,11,50,17.40
2012,09,25,11,51,17.40
2012,09,25,11,52,17.40
2012,09,25,11,53,17.50
2012,09,25,11,54,17.50
2012,09,25,11,55,17.50
2012,09,25,11,56,17.50
2012,09,25,11,57,17.50
2012,09,25,11,58,17.50
2012,09,25,11,59,17.60
2012,09,25,12,00,17.60
2012,09,25,12,01,17.70
2012,09,25,12,02,17.70
2012,09,25,12,03,17.70
2012,09,25,12,04,17.70
2012,09,25,12,05,17.70
2012,09,25,12,06,17.70
2012,09,25,12,07,17.70
2012,09,25,12,08,17.80
2012,09,25,12,09,17.80
2012,09,25,12,10,17.80
2012,09,25,12,11,17.90
2012,09,25,12,12,18.00
2012,09,25,12,13,18.00
2012,09,25,12,14,18.10
2012,09,25,12,15,18.20
2012,09,25,12,16,18.10
2012,09,25,12,17,18.10
2012,09,25,12,18,18.10
2012,09,25,12,19,18.10
2012,09,25,12,20,18.10
2012,09,25,12,21,18.10
2012,09,25,12,22,18.10
2012,09,25,12,23,18.10
2012,09,25,12,24,18.10
2012,09,25,12,25,18.10
2012,09,25,12,26,18.20
2012,09,25,12,27,18.20
2012,09,25,12,28,18.30
2012,09,25,12,29,18.30
2012,09,25,12,30,18.40
2012,09,25,12,31,18.40
2012,09,25,12,32,18.50
2012,09,25,12,33,18.60
2012,09,25,12,34,18.60
2012,09,25,12,35,18.70
2012,09,25,12,36,18.70
2012,09,25,12,37,18.80
2012,09,25,12,38,18.80
2012,09,25,12,39,18.90
2012,09,25,12,40,18.90
2012,09,25,12,41,18.90
2012,09,25,12,42,18.90
2012,09,25,12,43,19.00
2012,09,25,12,44,19.00
2012,09,25,12,45,19.00
2012,09,25,12,46,19.10
2012,09,25,12,47,19.20
2012,09,25,12,48,19.30
2012,09,25,12,49,19.30
2012,09,25,12,50,19.30
2012,09,25,12,51,19.40
2012,09,25,12,52,19.50
2012,09,25,12,53,19.60
2012,09,25,12,54,19.60
2012,09,25,12,55,19.60
2012,09,25,12,56,19.40
2012,09,25,12,57,19.30
2012,09,25,12,58,19.10
2012,09,25,12,59,19.00
2012,09,25,13,00,18.90
2012,09,25,13,01,18.90
2012,09,25,13,02,18.90
2012,09,25,13,03,18.90
2012,09,25,13,04,19.00
2012,09,25,13,05,19.10
2012,09,25,13,06,19.10
2012,09,25,13,07,19.20
2012,09,25,13,08,19.20
2012,09,25,13,09,19.10
2012,09,25,13,10,19.10
2012,09,25,13,11,19.10
2012,09,25,13,12,19.20
2012,09,25,13,13,19.20
2012,09,25,13,14,19.30
2012,09,25,13,15,19.40
2012,09,25,13,16,19.40
2012,09,25,13,17,19.50
2012,09,25,13,18,19.50
2012,09,25,13,19,19.60
2012,09,25,13,20,19.60
2012,09,25,13,21,19.60
2012,09,25,13,22,19.60
2012,09,25,13,23,19.60
2012,09,25,13,24,19.60
2012,09,25,13,25,19.60
2012,09,25,13,26,19.70
2012,09,25,13,27,19.70
2012,09,25,13,28,19.70
2012,09,25,13,29,19.80
2012,09,25,13,30,19.80
2012,09,25,13,31,19.80
2012,09,25,13,32,19.90
2012,09,25,13,33,19.90
2012,09,25,13,34,20.00
2012,09,25,13,35,20.10
2012,09,25,13,36,20.10
2012,09,25,13,37,20.10
2012,09,25,13,38,20.20
2012,09,25,13,39,20.20
2012,09,25,13,40,20.20
2012,09,25,13,41,20.20
2012,09,25,13,42,20.20
2012,09,25,13,43,20.20
2012,09,25,13,44,20.20
2012,09,25,13,45,20.30
2012,09,25,13,46,20.30
2012,09,25,13,47,20.30
2012,09,25,13,48,20.40
2012,09,25,13,49,20.30
2012,09,25,13,50,20.30
2012,09,25,13,51,20.30
2012,09,25,13,52,20.30
2012,09,25,13,53,20.30
2012,09,25,13,54,20.30
2012,09,25,13,55,20.30
2012,09,25,13,56,20.40
2012,09,25,13,57,20.40
2012,09,25,13,58,20.40
2012,09,25,13,59,20.40
2012,09,25,14,00,20.50
2012,09,25,14,01,20.50
2012,09,25,14,02,20.60
2012,09,25,14,03,20.60
2012,09,25,14,04,20.50
2012,09,25,14,05,20.50
2012,09,25,14,06,20.50
2012,09,25,14,07,20.60
2012,09,25,14,08,20.60
2012,09,25,14,09,20.70
2012,09,25,14,10,20.70
2012,09,25,14,11,20.70
2012,09,25,14,12,20.70
2012,09,25,14,13,20.70
2012,09,25,14,14,20.70
2012,09,25,14,15,20.70
2012,09,25,14,16,20.70
2012,09,25,14,17,20.70
2012,09,25,14,18,20.80
2012,09,25,14,19,20.80
2012,09,25,14,20,20.80
2012,09,25,14,21,20.80
2012,09,25,14,22,20.80
2012,09,25,14,23,20.80
2012,09,25,14,24,20.90
2012,09,25,14,25,20.90
2012,09,25,14,26,20.90
2012,09,25,14,27,20.90
2012,09,25,14,28,20.90
2012,09,25,14,29,20.90
2012,09,25,14,30,21.00
2012,09,25,14,31,21.00
2012,09,25,14,32,21.10
2012,09,25,14,33,21.20
2012,09,25,14,34,21.20
2012,09,25,14,35,21.30
2012,09,25,14,36,21.30
2012,09,25,14,37,21.30
2012,09,25,14,38,21.30
2012,09,25,14,39,21.30
2012,09,25,14,40,21.30
2012,09,25,14,41,21.40
2012,09,25,14,42,21.40
2012,09,25,14,43,21.40
2012,09,25,14,44,21.50
2012,09,25,14,45,21.60
2012,09,25,14,46,21.60
2012,09,25,14,47,21.70
2012,09,25,14,48,21.70
2012,09,25,14,49,21.60
2012,09,25,14,50,21.60
2012,09,25,14,51,21.60
2012,09,25,14,52,21.60
2012,09,25,14,53,21.50
2012,09,25,14,54,21.60
2012,09,25,14,55,21.60
2012,09,25,14,56,21.70
2012,09,25,14,57,21.80
2012,09,25,14,58,21.90
2012,09,25,14,59,21.90
2012,09,25,15,00,22.00
2012,09,25,15,01,22.00
2012,09,25,15,02,22.10
2012,09,25,15,03,22.10
2012,09,25,15,04,22.10
2012,09,25,15,05,22.00
2012,09,25,15,06,22.00
2012,09,25,15,07,21.90
2012,09,25,15,08,21.80
2012,09,25,15,09,21.80
2012,09,25,15,10,21.80
2012,09,25,15,11,21.80
2012,09,25,15,12,21.80
2012,09,25,15,13,21.80
2012,09,25,15,14,21.80
2012,09,25,15,15,21.90
2012,09,25,15,16,21.80
2012,09,25,15,17,21.80
2012,09,25,15,18,21.80
2012,09,25,15,19,21.80
2012,09,25,15,20,21.80
2012,09,25,15,21,21.80
2012,09,25,15,22,21.80
2012,09,25,15,23,21.90
2012,09,25,15,24,21.90
2012,09,25,15,25,22.00
2012,09,25,15,26,22.10
2012,09,25,15,27,22.20
2012,09,25,15,28,22.20
2012,09,25,15,29,22.20
2012,09,25,15,30,22.20
2012,09,25,15,31,22.30
2012,09,25,15,32,22.30
2012,09,25,15,33,22.20
2012,09,25,15,34,22.20
2012,09,25,15,35,22.20
2012,09,25,15,36,22.10
2012,09,25,15,37,22.10
2012,09,25,15,38,22.10
2012,09,25,15,39,22.10
2012,09,25,15,40,22.10
2012,09,25,15,41,22.10
2012,09,25,15,42,22.20
2012,09,25,15,43,22.20
2012,09,25,15,44,22.20
2012,09,25,15,45,22.20
2012,09,25,15,46,22.20
2012,09,25,15,47,22.20
2012,09,25,15,48,22.10
2012,09,25,15,49,22.10
2012,09,25,15,50,22.10
2012,09,25,15,51,22.10
2012,09,25,15,52,22.20
2012,09,25,15,53,22.20
2012,09,25,15,54,22.20
2012,09,25,15,55,22.30
2012,09,25,15,56,22.30
2012,09,25,15,57,22.30
2012,09,25,15,58,22.30
2012,09,25,15,59,22.20
2012,09,25,16,00,22.20
2012,09,25,16,01,22.10
2012,09,25,16,02,22.10
2012,09,25,16,03,22.10
2012,09,25,16,04,22.10
2012,09,25,16,05,22.10
2012,09,25,16,06,22.10
2012,09,25,16,07,22.20
2012,09,25,16,08,22.10
2012,09,25,16,09,22.10
2012,09,25,16,10,22.10
2012,09,25,16,11,22.10
2012,09,25,16,12,22.10
2012,09,25,16,13,22.10
2012,09,25,16,14,22.10
2012,09,25,16,15,22.10
2012,09,25,16,16,22.00
2012,09,25,16,17,22.00
2012,09,25,16,18,22.00
2012,09,25,16,19,22.00
2012,09,25,16,20,22.10
2012,09,25,16,21,22.10
2012,09,25,16,22,22.10
2012,09,25,16,23,22.10
2012,09,25,16,24,22.20
2012,09,25,16,25,22.20
2012,09,25,16,26,22.30
2012,09,25,16,27,22.20
2012,09,25,16,28,22.20
2012,09,25,16,29,22.10
2012,09,25,16,30,22.10
2012,09,25,16,31,22.10
2012,09,25,16,32,22.10
2012,09,25,16,33,22.00
2012,09,25,16,34,21.90
2012,09,25,16,35,21.80
2012,09,25,16,36,21.70
2012,09,25,16,37,21.70
2012,09,25,16,38,21.60
2012,09,25,16,39,21.60
2012,09,25,16,40,21.60
2012,09,25,16,41,21.60
2012,09,25,16,42,21.60
2012,09,25,16,43,21.60
2012,09,25,16,44,21.60
2012,09,25,16,45,21.60
2012,09,25,16,46,21.60
2012,09,25,16,47,21.60
2012,09,25,16,48,21.70
2012,09,25,16,49,21.70
2012,09,25,16,50,21.80
2012,09,25,16,51,21.70
2012,09,25,16,52,21.70
2012,09,25,16,53,21.70
2012,09,25,16,54,21.80
2012,09,25,16,55,21.80
2012,09,25,16,56,21.80
2012,09,25,16,57,21.90
2012,09,25,16,58,21.90
2012,09,25,16,59,22.00
2012,09,25,17,00,22.00
2012,09,25,17,01,22.10
2012,09,25,17,02,22.10
2012,09,25,17,03,22.20
2012,09,25,17,04,22.20
2012,09,25,17,05,22.20
2012,09,25,17,06,22.20
2012,09,25,17,07,22.10
2012,09,25,17,08,22.20
2012,09,25,17,09,22.20
2012,09,25,17,10,22.10
2012,09,25,17,11,22.00
2012,09,25,17,12,21.90
2012,09,25,17,13,21.80
2012,09,25,17,14,21.70
2012,09,25,17,15,21.60
2012,09,25,17,16,21.50
2012,09,25,17,17,21.20
2012,09,25,17,18,21.10
2012,09,25,17,19,21.00
2012,09,25,17,20,20.90
2012,09,25,17,21,20.90
2012,09,25,17,22,20.90